Hanamaulu, HI (96715)

12:20 AM HST on August 31, 2015 (GMT -1000)
Lihue | | Change Station
CLOSE
Current Station
Personal Weather Station
Location: Lihue, HI
Elevation: 342 ft
Nearby Weather Stations
Active Advisory: High Surf Advisory Active Notice: Record Report

Elev 342 ft 21.97 °N, 159.40 °W | Updated 23 minutes ago

Overcast
Overcast
77.5 °F
Feels Like 79 °F
N
1.3
Wind Variable Wind from NE
Gusts 4.5 mph

Today
High -- | Low -- °F
--% Chance of Precip.
Yesterday
High -- | Low -- °F
Precip. -- in
6:20 AM 6:54 PM
Waning Gibbous, 96% visible
Pressure 29.94 in
Visibility 10.0 miles
Clouds Few 3700 ft
Mostly Cloudy 4700 ft
Overcast 6000 ft
Heat Index 79 °F
Dew Point 77 °F
Humidity 99%
Rainfall -9999.00 in
Snow Depth Not available.
UV 0 out of 12
Pollen Not available.
Air Quality Not available.
Flu Activity Not available.
METAR PHLI 310953Z AUTO 05012KT 10SM FEW037 BKN047 OVC060 27/27 A2994 RMK AO2 SLP137 T02670267 403000250 TSNO $
Pressure 29.94 in
Visibility 10.0 miles
Clouds Few 3700 ft
Mostly Cloudy 4700 ft
Overcast 6000 ft
Heat Index 79 °F
Dew Point 77 °F
Humidity 99%
Rainfall -9999.00 in
Snow Depth Not available.
UV 0 out of 12
Pollen Not available.
Air Quality Not available.
Flu Activity Not available.
METAR PHLI 310953Z AUTO 05012KT 10SM FEW037 BKN047 OVC060 27/27 A2994 RMK AO2 SLP137 T02670267 403000250 TSNO $

10-Day Weather Forecast

×

Almanac

Astronomy

Aug. 31, 2015 Rise Set
Actual Time
Civil Twilight
Nautical Twilight
Astronomical Twilight
Moon
Length of Visible Light
Length of Day
Tomorrow will be .
, % of the Moon is Illuminated

Today's Extremes

State Highs State Lows

Community

WunderPhotos

Upload Photos

1,851,229 photos uploaded!

WunderBlogs® & News

Nearby

Air Quality

  Air Quality AQ Index Pollutant
Not available.

Snow Depth

Station Depth Elevation

Earthquake Activity

City Distance Mag. Time & Date
Minimum magnitude displayed is 2.5.

Coastal Water Temperatures

Place Temperature

Stations

Nearby Weather Stations

Station Location Temp. Windchill Dew Point Humidity Wind Precip. Elev Updated Type
                   
High Surf Advisory
Statement as of 5:34 PM HST on August 30, 2015

... High surf advisory remains in effect until 6 PM HST
Wednesday...

A high surf advisory remains in effect until 6 PM HST Wednesday.

* Surf... along east facing shores... rising to 6 to 10 feet
tonight and Monday.

* Impacts... moderate... expect strong breaking waves... shore
break... and strong longshore and rip currents making swimming
difficult and dangerous.

Precautionary/preparedness actions...

Beachgoers... swimmers... and surfers should heed all advice given
by ocean safety officials and exercise caution. Boaters should
expect recreational surfers and body boarders utilizing Harbor
channels to access surfing areas.